Miscellaneous Local Product
Issued by NWS Hastings, NE

Home | Current Version | Previous Version | Graphics & Text | Print | Product List | Glossary On
Versions: 1 2 3 4 5 6 7 8 9 10 11 12 13 14 15 16 17 18 19 20 21 22 23 24 25 26 27 28 29 30 31 32 33 34 35 36 37 38 39 40 41 42 43 44 45 46 47 48 49 50
000
AXUS43 KGID 280802
MISGRI

GID CWA HOURLY WEATHER ROUNDUP
NATIONAL WEATHER SERVICE HASTINGS NE
200 AM CST WED JAN 28 2015

NOTE: "FAIR" INDICATES FEW OR NO CLOUDS BELOW 12,000 FEET WITH NO
SIGNIFICANT WEATHER AND/OR OBSTRUCTIONS TO VISIBILITY.

...SOUTH CENTRAL NEBRASKA...

CITY           SKY/WX    TMP DP  RH WIND       PRES   REMARKS
GRAND ISLAND   CLEAR     33  28  81 S6        29.87F WCI  28
HASTINGS       CLEAR     35  29  78 SE6       29.86F WCI  30
KEARNEY        CLEAR     34  27  75 CALM      29.86F
ORD            CLEAR     25  24  96 CALM      29.85F
YORK           MOCLDY    36  30  80 SE6       29.89F WCI  31
AURORA         PTCLDY    31  28  87 SE6       29.88F WCI  25
LEXINGTON      CLEAR     30  26  86 CALM      29.86F
HOLDREGE       PTCLDY    36  28  74 SE5       29.86F WCI  32
HEBRON         PTCLDY    34  29  82 CALM      29.89F

...NEBRASKA PANHANDLE...

CITY           SKY/WX    TMP DP  RH WIND       PRES   REMARKS
CHADRON        CLEAR     36  27  69 W5        29.87F WCI  32
ALLIANCE       CLEAR     34  26  72 CALM      29.92F
SCOTTSBLUFF      N/A    N/A N/A N/A MISG      29.94F
SIDNEY         CLEAR     40  27  59 NW15      29.96S WCI  32

...WESTERN AND NORTH CENTRAL NEBRASKA...

CITY           SKY/WX    TMP DP  RH WIND       PRES   REMARKS
VALENTINE      CLEAR     36  30  79 SW8       29.83F WCI  30
AINSWORTH      CLEAR     38  30  72 SW7       29.82F WCI  33
ONEILL         CLEAR     38  33  82 S12       29.84F WCI  31
BROKEN BOW     CLEAR     34  29  82 CALM      29.86F
IMPERIAL       CLEAR     38  25  59 NW3       29.87F
NORTH PLATTE   PTCLDY    28  23  81 CALM      29.87F
MCCOOK         PTCLDY    33  26  75 NW3       29.85F

...EASTERN NEBRASKA...

CITY           SKY/WX    TMP DP  RH WIND       PRES   REMARKS
NORFOLK        PTCLDY    37  30  75 SE7       29.89F WCI  32
SO SIOUX CITY  CLEAR     31  28  89 SE8       29.94F WCI  23
TEKAMAH        CLEAR     33  29  85 SE9       29.95F WCI  25
COLUMBUS       PTCLDY    37  27  65 SE6       29.92S WCI  33
ALBION         MOCLDY    32  27  83 CALM      29.89F
OMAHA EPPLEY   PTCLDY    38  30  73 SE15      29.96F WCI  29
OFFUTT AFB     CLEAR     37  30  77 SE14      29.95F WCI  28
MILLARD        CLEAR     36  31  81 SE3       29.96S
LINCOLN        CLEAR     38  29  70 S8        29.93F WCI  32
NEBRASKA CITY  CLEAR     37  28  70 SE8       29.96F WCI  30
BEATRICE       CLEAR     40  31  69 SE9       29.91F WCI  34
FALLS CITY     CLEAR     35  29  78 SE7       29.96F WCI  29

...NORTHERN KANSAS...

CITY           SKY/WX    TMP DP  RH WIND       PRES   REMARKS
GOODLAND       CLEAR     30  26  85 W5        29.88F WCI  25
HILL CITY      CLEAR     44  29  55 W8        29.87F
NORTON         SUNNY     34  25  69 S7        29.85F WCI  28
PHILLIPSBURG   CLEAR     32  28  86 NW3       29.87F
SMITH CENTER   CLEAR     36  30  80 SE7       29.88F WCI  30
BELOIT         CLEAR     34  30  86 CALM      29.88S
HAYS           CLEAR     46  30  53 SW12      29.90F
RUSSELL        CLEAR     45  33  63 SW12      29.87F
CONCORDIA      PTCLDY    43  34  70 S5        29.88F
SALINA         PTCLDY    42  33  70 S7        29.91F
TOPEKA         CLEAR     41  29  62 SE8       29.98F



USA.gov is the U.S. government's official web portal to all federal, state and local government web resources and services.